To NAV CANADA Home Page Login to a new session Search on AWWS site Feedback and Comments Disclaimer Vers la page française équivalente Tips FAQ What's new on the site To the Forecasts and Observations / NOTAM section To "File a Flight Plan" website Publications and other links Update of the User's profile FIC Telephone Numbers My Weather Data Folder Route Weather Data Regional Weather Data Local Weather Data To the Forecasts and Observations / NOTAM section
Request Generated 07/06/2015 at 09:23:35 UTC . Weather information available at that time is displayed.

METAR/TAF

HOPE/BC    (show WxCam)

METAR CYHE 060900Z AUTO 09003KT 090V250 9SM CLR 18/13 A2991 RMK
SLP128 DENSITY ALT 500FT=
METAR CYHE 060800Z AUTO 00000KT 9SM CLR 18/12 A2989 RMK SLP121
DENSITY ALT 500FT=
METAR CYHE 060700Z AUTO 00000KT 9SM CLR 20/12 A2987 RMK SLP115
DENSITY ALT 700FT=

CYHE - No TAF is issued for this station

Your time UTC time
Weather data provided by Environment Canada and NAV CANADA